Temp_Advection
nan nan nan nan nan nan nan nan nan nan nan nan nan nan nan nan nan nan nan nan nan nan nan nan nan nan nan nan nan nan nan nan nan nan nan nan nan nan nan nan nan nan nan nan nan nan nan nan nan
nan 0 -0 -1 -0 -0 -1 -0 0 0 -0 -0 0 0 0 -1 -1 -0 0 0 0 -0 -0 0 0 0 0 0 0 0 -0 -0 -0 -0 -0 -0 -0 -0 -0 -0 -0 -0 -0 -0 0 0 0 0 nan
nan -0 -1 -0 -0 -1 -1 0 -0 -0 0 0 -0 -0 -0 -0 -0 -0 -0 0 0 0 -0 -0 0 0 0 0 0 -0 -0 -0 -0 -0 -0 -0 -0 -0 -0 -0 -0 -0 -0 -0 -0 -0 0 0 nan
nan -0 -1 -1 -1 -1 -1 0 -0 -0 -0 0 0 -0 -1 -0 0 0 0 0 0 0 0 -0 0 0 0 -0 -0 -0 -0 -0 -0 0 0 0 -0 0 0 0 -0 -0 0 0 -0 -0 -0 -0 nan
nan -0 -1 -1 -1 -1 0 -0 0 -0 -0 -0 0 -0 -0 -0 0 0 -0 -0 0 -0 0 0 0 0 0 0 0 0 0 0 0 0 0 0 0 0 0 0 0 0 0 0 0 -0 -0 -0 nan
nan -1 -1 -1 -1 0 0 0 -0 0 -0 -0 -0 -0 -1 0 0 1 0 -0 -0 0 -0 0 0 0 0 0 -0 -0 0 0 0 0 0 0 0 0 0 0 0 0 0 0 0 0 0 0 nan
nan -1 -1 -1 -0 1 0 0 0 0 -0 0 0 -0 -1 -0 0 0 1 0 0 0 -0 0 0 0 0 0 -0 0 0 0 0 -0 -0 0 0 0 0 -0 0 0 0 0 0 0 0 0 nan
nan -1 -1 -1 -0 -0 0 0 0 1 -0 -0 0 0 -0 -0 0 0 0 0 0 0 0 -0 0 0 -0 -0 0 0 0 0 0 0 0 -0 -0 -0 0 -0 -0 0 -0 -0 -0 -0 -0 -0 nan
nan -1 -1 -1 -1 -1 1 0 0 0 0 -0 0 -0 -0 -0 0 0 0 0 0 -0 -0 0 -0 -0 -0 -0 -0 -0 0 -0 -0 -0 -0 0 0 -0 -0 -0 -0 0 0 0 -0 -0 -0 -0 nan
nan -1 -2 -1 -0 0 0 0 -0 -0 -0 -0 -0 -0 1 0 0 -0 0 -0 0 -0 0 0 -0 -0 -0 -0 -0 -0 -0 -0 -0 -0 -0 -0 0 -0 -0 -0 -1 -0 -0 -0 -0 -0 -0 -0 nan
nan -1 -0 1 2 1 -0 0 -0 -0 0 0 0 -1 -0 1 0 0 -0 -0 -0 -0 0 -0 -0 -0 -0 -0 -0 -0 -0 -0 -0 -0 -0 -0 -0 0 -0 -0 -0 -1 -1 -1 -1 -0 -0 -1 nan
nan -0 1 1 0 1 0 0 -0 0 -0 0 0 -0 -1 -0 -0 -0 -0 -0 -0 -0 0 -0 -0 -0 0 0 -0 -0 -0 -0 -0 -0 -0 -0 -0 -0 0 0 0 -0 0 -0 -0 -0 -0 -0 nan
nan -0 0 0 -0 1 0 0 0 1 -0 0 0 0 -0 -0 -0 -0 -0 0 -0 -0 0 -0 -0 -0 0 0 0 -0 -0 -0 -0 -0 -0 -0 -0 -0 -0 -0 -0 -0 0 -0 0 -0 -0 -0 nan
nan 0 -0 0 -0 1 0 0 0 0 -0 -0 0 0 -0 -0 -0 -0 0 0 -0 0 0 0 -0 -0 0 0 -0 0 -0 -0 -0 -0 -0 -0 -0 -0 -0 -0 -0 -0 -0 -0 -0 -0 -0 -0 nan
nan -0 0 0 0 0 1 0 0 -0 -0 -0 -0 -0 0 0 0 0 0 -0 0 0 -0 -0 -0 0 0 0 0 -0 -0 -0 -0 -0 -0 -0 -0 -0 -0 -0 -0 -0 0 0 -0 0 -0 -0 nan
nan -0 -0 0 0 -0 -0 -0 -0 -0 -0 -0 -0 -0 -0 0 0 0 0 0 0 -0 -0 -0 -0 0 0 0 0 -0 -0 0 -0 -0 -0 -0 -0 -0 -0 -0 0 -0 -0 0 0 0 0 -0 nan
nan -0 -0 -0 -0 -0 -0 0 -0 0 -0 -0 -0 -0 -0 -0 -0 -0 0 -0 -0 -0 -0 -0 0 0 0 0 0 -0 -0 0 0 -0 -0 -0 -0 -0 -0 -0 -0 -0 -0 -0 0 0 0 0 nan
nan -1 -0 -0 0 -0 -0 -0 -0 0 0 -0 -0 -0 -0 -0 -0 0 -0 -0 -0 0 -0 0 0 0 0 0 0 -0 -0 0 0 -0 -0 -0 -0 -0 -0 -0 -0 -0 -0 0 -1 -0 0 0 nan
nan -0 -0 -1 0 -0 0 -0 -0 -0 -0 -0 -0 -0 -0 0 0 0 -0 -0 0 0 0 1 0 -0 0 0 -0 0 0 -0 0 -0 0 0 -0 -0 -0 -0 -0 -0 -0 0 -0 -1 -0 -0 nan
nan 0 -0 -0 0 -0 0 -0 0 0 0 0 1 1 1 1 1 0 -0 0 0 0 0 0 0 -0 -0 0 0 0 0 0 0 0 0 0 0 0 0 -0 0 -0 -0 0 0 -0 0 0 nan
nan 1 0 -0 -0 0 0 0 -0 -0 0 0 0 0 0 0 0 0 -0 0 0 0 0 0 0 0 0 0 0 0 -0 0 0 -0 0 0 0 0 0 0 0 0 -0 0 0 0 0 0 nan
nan -1 0 0 -0 -0 -0 0 -0 -0 -0 -0 -0 0 0 0 0 0 -0 -0 0 0 0 0 0 0 0 0 0 0 0 0 -0 -0 0 0 0 0 0 0 0 0 -0 0 0 0 0 0 nan
nan -0 0 -0 -0 0 0 -0 0 0 -0 -0 -0 -0 0 0 0 0 0 -0 0 0 0 0 0 0 0 0 0 0 -0 -0 0 -0 -0 0 0 0 0 0 0 0 0 0 0 0 0 1 nan
nan -0 0 0 0 0 -0 -0 0 0 0 -0 -0 0 0 -0 -0 -0 0 0 0 0 0 0 0 0 0 -0 0 0 0 0 0 -0 -0 0 0 -0 -0 0 0 0 0 0 0 0 1 1 nan
nan -0 -0 -0 -0 0 -0 -0 -0 -0 0 1 1 0 0 0 0 0 0 0 0 0 0 0 0 0 0 0 0 0 -0 -0 -0 -0 -0 -0 0 0 0 0 0 0 0 0 0 0 0 1 nan
nan -0 -0 0 0 -0 -0 -0 0 0 0 0 0 0 0 0 0 0 0 -0 -0 0 0 0 0 0 0 0 0 0 -0 -0 -0 -0 -0 -0 -0 -0 0 0 0 0 0 0 0 0 0 0 nan
nan 0 -0 -0 0 -0 -0 -0 1 1 0 -0 -0 0 -0 0 0 0 -0 -0 -0 -0 0 0 0 0 0 0 0 -0 -0 -0 -0 -0 -0 -0 -0 -0 -0 0 0 0 0 0 0 0 0 0 nan
nan -0 -0 -0 0 -0 -0 0 1 -0 -1 -0 -0 -0 -0 0 0 0 0 -0 0 0 0 0 0 0 0 -0 -0 0 0 0 -0 -0 -0 -0 -0 -0 -0 -0 -0 -0 0 0 -0 -0 0 0 nan
nan -0 -0 -0 -0 -0 -0 -0 -0 -0 -0 0 -0 0 0 0 0 0 0 -0 0 0 0 0 0 0 0 -0 0 0 0 0 0 0 0 -0 -0 -0 -0 0 0 -0 -0 0 -0 -0 0 0 nan
nan nan nan nan nan nan nan nan nan nan nan nan nan nan nan nan nan nan nan nan nan nan nan nan nan nan nan nan nan nan nan nan nan nan nan nan nan nan nan nan nan nan nan nan nan nan nan nan nan
Wind_Speed
17 7 4 1 5 6 13 10 2 7 7 3 6 2 6 13 8 3 15 12 15 14 12 12 10 7 6 5 4 4 4 4 4 5 5 5 6 6 6 6 7 7 7 6 7 6 7 8 9
17 7 5 7 8 12 12 10 8 6 8 7 6 3 1 9 9 14 14 14 15 14 11 9 9 7 6 4 3 2 3 3 4 4 5 5 6 6 7 7 8 8 8 7 7 8 8 9 9
23 11 11 6 11 15 13 15 8 7 8 8 5 3 3 5 13 11 12 16 16 13 13 10 9 6 5 3 2 1 1 2 4 5 5 6 7 8 9 9 10 10 10 10 9 10 11 12 12
19 8 9 13 17 20 16 9 12 11 7 6 3 7 6 6 10 8 16 16 15 14 12 11 9 7 5 3 2 1 2 3 5 6 8 9 10 11 12 13 13 13 12 12 12 12 13 13 14
16 8 9 14 21 18 7 3 13 11 10 10 7 6 5 7 8 16 16 16 13 12 10 11 9 6 3 1 0 2 4 6 7 7 8 9 9 10 11 12 13 13 14 14 15 15 15 15 15
16 21 12 18 21 18 12 7 13 10 8 9 6 9 7 8 16 17 16 14 13 11 10 9 8 3 2 0 3 4 6 7 7 8 10 11 12 13 13 14 15 15 16 17 17 17 18 18 18
18 16 20 23 18 17 13 9 13 10 9 8 3 9 6 13 17 17 17 18 17 14 10 7 6 3 1 2 4 6 7 8 9 10 11 12 14 14 15 16 17 17 18 18 19 19 20 20 21
17 14 24 21 17 18 18 14 6 11 9 8 4 5 7 18 24 20 16 14 13 11 9 7 5 2 2 4 6 7 8 10 11 12 13 13 15 15 17 18 20 20 21 21 22 22 23 23 23
8 11 18 25 21 22 17 14 6 5 7 5 5 3 7 23 25 22 19 14 12 12 9 7 5 4 3 7 7 8 9 10 12 13 13 14 14 17 18 20 20 20 20 21 22 23 24 24 25
11 10 23 20 16 19 19 16 11 8 9 7 8 6 12 22 24 23 19 15 11 12 10 8 6 5 5 6 8 9 10 11 11 13 14 15 16 16 18 18 18 18 18 19 20 20 19 17 15
12 13 13 15 19 21 18 15 13 10 10 11 13 13 14 25 23 21 14 13 11 11 10 8 6 6 5 7 8 9 10 10 12 14 15 15 15 16 15 16 16 18 17 16 18 16 15 17 18
15 2 9 9 3 11 16 15 10 13 4 5 5 15 17 24 24 18 14 14 13 11 11 9 7 6 6 8 8 10 10 11 13 14 15 14 14 15 16 16 18 16 15 17 16 15 15 15 15
14 7 4 9 10 13 14 13 10 11 3 4 7 14 18 19 19 17 15 13 13 13 11 10 8 7 7 8 9 9 11 12 14 14 14 14 15 16 17 17 17 17 17 16 16 15 15 15 14
10 9 12 12 12 11 13 11 13 6 7 9 11 13 16 18 18 17 15 13 12 13 12 10 9 8 8 8 9 9 10 13 13 12 12 14 15 17 18 17 17 16 17 16 15 15 15 14 13
16 13 11 10 12 6 14 9 7 10 10 10 11 13 16 17 16 14 13 11 11 10 12 11 10 10 9 10 9 8 12 12 11 10 12 13 15 17 18 18 17 17 19 17 16 14 13 13 12
12 14 12 7 8 5 4 13 10 9 12 12 12 13 15 15 14 12 10 12 12 12 13 13 12 11 11 10 8 9 12 10 9 9 11 14 16 18 18 18 17 19 18 17 15 15 13 12 12
12 15 14 8 1 7 8 15 11 9 11 13 13 13 13 12 11 11 11 12 12 14 14 14 14 14 12 9 8 10 10 8 8 9 11 14 16 18 18 18 17 18 17 15 16 17 13 12 12
14 17 15 12 4 9 8 9 10 8 10 12 13 12 12 12 11 10 10 14 13 14 15 15 16 15 12 10 9 10 10 8 8 7 10 14 17 19 19 18 18 18 17 16 18 19 14 9 15
6 15 17 11 2 9 11 8 10 9 7 10 12 12 12 11 8 10 13 14 15 17 17 15 15 15 13 11 10 11 9 10 9 9 12 16 18 20 20 19 18 17 17 16 15 19 16 10 13
4 17 14 5 2 4 8 8 8 7 8 8 11 12 11 10 8 7 13 16 18 16 16 17 16 16 14 13 13 11 12 11 11 12 15 18 20 20 20 19 18 17 16 15 14 16 17 10 9
2 10 12 9 7 4 6 8 9 6 6 5 6 6 4 7 6 4 7 10 15 18 18 17 16 16 15 15 13 13 13 12 12 14 17 20 22 22 21 19 19 17 17 16 15 15 17 11 7
7 7 2 12 10 4 2 5 12 10 8 7 7 8 7 5 3 1 1 3 6 10 12 14 15 15 15 13 13 13 12 11 12 16 18 20 21 21 20 20 18 17 16 16 15 14 16 12 8
4 3 2 4 5 3 3 2 6 6 9 9 8 8 6 4 3 2 1 2 4 7 10 12 12 12 12 11 12 12 12 13 16 18 19 21 20 20 18 18 18 18 17 16 16 15 13 14 10
2 2 3 2 2 0 2 2 5 5 7 10 8 8 7 5 3 2 2 2 2 3 5 6 7 8 9 11 10 11 13 14 16 17 19 18 17 18 19 19 19 18 18 17 17 16 15 12 11
3 2 2 1 2 0 1 2 2 4 3 7 9 6 6 6 5 4 4 3 3 3 4 5 6 7 8 10 11 11 12 13 14 14 15 16 16 16 16 19 20 19 19 19 18 17 16 14 11
4 4 3 1 3 3 2 3 2 2 4 3 4 4 6 6 5 4 5 6 6 5 4 5 6 8 9 9 10 10 10 10 12 14 15 17 18 18 18 18 19 19 19 19 19 19 18 16 15
4 1 2 2 1 2 2 2 6 4 6 6 6 6 9 9 8 7 7 6 5 5 5 6 7 7 7 7 7 8 11 14 17 18 20 21 22 22 22 21 21 20 20 20 20 20 20 19 18
1 2 2 1 1 1 2 3 3 5 10 8 9 10 10 10 9 8 7 7 7 6 5 5 4 4 5 7 10 12 15 17 19 21 23 23 24 24 24 24 23 23 22 22 22 22 21 21 21
1 2 1 2 3 2 2 1 1 3 4 9 9 9 9 9 8 8 7 8 7 6 6 5 5 6 8 10 13 16 19 21 23 24 25 25 26 26 26 25 24 24 23 23 24 24 24 25 24
4 4 4 2 2 1 2 5 3 3 1 3 7 8 8 8 7 7 9 9 8 8 8 8 9 9 10 13 17 20 23 24 25 25 25 25 26 26 26 26 25 25 25 24 25 25 26 27 26
Wind_Direction
213 214 247 184 234 228 225 218 56 168 171 85 126 351 48 29 5 31 135 140 144 146 163 151 145 141 136 125 109 91 71 54 41 32 24 16 12 5 356 348 341 337 329 316 313 313 317 327 332
196 212 212 212 241 210 216 198 199 160 91 143 127 106 152 78 64 119 135 143 144 149 145 166 146 147 144 135 120 91 62 40 22 6 356 350 344 340 334 330 331 329 328 318 308 307 307 310 309
189 190 219 209 223 229 218 185 184 118 137 154 131 31 49 74 120 127 145 150 145 145 163 168 149 147 145 137 115 78 54 353 347 338 332 331 326 321 319 319 321 322 318 313 308 304 301 303 304
178 184 245 227 209 224 222 165 137 146 140 166 155 126 92 72 128 142 144 141 145 148 159 169 152 151 143 139 110 32 353 344 332 322 319 316 312 309 307 309 309 307 304 304 302 300 298 296 295
177 180 240 215 218 202 198 98 172 172 147 162 180 123 105 140 139 142 143 141 146 145 155 157 149 154 160 181 294 334 324 322 319 317 315 312 309 305 302 301 299 297 296 294 291 289 287 287 288
183 197 189 219 214 204 179 194 187 168 148 131 172 136 122 162 139 150 149 146 152 142 157 164 153 151 153 264 321 322 324 324 323 320 317 315 313 311 310 309 307 305 302 299 296 293 290 288 285
217 199 204 208 206 193 193 186 184 166 165 165 129 162 128 152 153 151 157 166 164 151 141 143 162 163 227 308 317 317 317 317 316 317 317 317 316 314 313 311 308 306 303 299 296 293 290 287 284
210 227 216 207 203 195 193 176 166 176 144 117 164 168 172 181 166 152 157 152 156 165 166 165 168 180 300 304 311 311 314 315 317 320 320 320 317 318 313 308 311 306 303 301 297 294 292 289 286
205 222 217 196 201 196 158 182 177 151 124 159 154 66 113 180 174 177 169 160 172 183 187 187 195 214 263 297 308 310 316 318 319 323 324 323 321 316 318 312 311 309 308 305 302 300 298 295 291
214 214 203 218 186 198 172 186 156 163 161 179 160 125 162 173 174 181 183 180 174 191 198 207 216 239 274 288 306 312 316 320 317 320 323 324 323 319 322 320 321 319 317 315 311 309 310 314 307
200 209 215 180 207 195 172 192 169 199 192 200 196 167 159 171 177 181 178 183 185 199 209 220 232 255 274 298 312 312 318 317 321 322 324 327 330 326 328 330 325 327 327 323 319 318 313 311 311
190 275 177 153 235 169 170 161 183 198 76 100 132 170 165 173 178 176 184 192 193 206 216 225 241 256 280 298 309 308 314 324 320 323 327 330 332 334 333 332 331 330 327 325 322 318 316 313 312
218 151 155 159 188 179 163 174 162 173 110 149 168 168 172 174 180 181 184 192 209 215 221 231 243 260 286 300 298 316 321 318 322 323 331 339 341 338 338 336 335 333 331 330 325 322 316 315 311
169 158 146 166 155 155 169 145 157 153 138 135 149 169 176 180 180 176 185 192 211 221 229 239 246 266 276 290 306 308 314 321 322 328 338 341 341 341 340 340 339 339 334 329 327 322 320 318 314
149 141 137 149 164 152 162 155 183 140 144 140 153 164 170 177 183 189 195 201 213 231 240 246 251 259 279 285 293 305 323 322 325 332 334 339 340 342 344 345 344 338 338 336 331 327 323 321 317
172 154 154 145 182 179 214 168 134 153 154 155 159 164 169 177 190 196 203 213 221 222 243 249 253 258 265 277 292 310 319 314 317 324 331 342 347 347 347 344 341 340 341 341 332 331 329 326 321
178 174 167 152 224 160 220 152 156 163 176 167 175 178 179 184 196 206 218 224 229 239 244 251 253 254 261 272 284 302 310 304 306 320 343 351 349 347 344 342 340 340 341 344 334 333 332 326 324
178 174 156 155 146 193 196 106 153 164 188 183 187 189 191 199 207 214 224 230 231 237 239 248 251 247 257 265 276 297 300 290 296 324 340 341 344 347 344 340 339 340 340 336 334 341 332 334 302
252 160 167 111 121 198 190 149 167 170 191 202 199 200 204 213 209 217 229 236 240 240 241 236 240 241 248 253 271 290 292 286 290 305 321 329 333 337 339 337 333 334 337 334 331 337 336 329 327
258 163 134 112 115 238 177 188 163 181 200 205 214 213 217 221 233 240 242 242 242 241 240 232 231 240 241 249 257 276 281 279 281 293 310 317 322 327 329 330 328 326 331 331 329 329 334 333 338
18 166 167 145 146 77 164 197 183 180 198 184 206 213 217 226 223 242 255 241 235 234 234 237 237 239 239 244 260 280 284 277 281 293 303 314 319 319 321 323 326 322 324 328 330 325 332 325 338
129 17 153 137 176 148 247 189 192 173 181 199 189 183 177 180 171 188 233 251 235 232 231 227 227 232 237 248 266 283 276 276 280 288 299 307 311 315 316 318 319 319 316 321 327 326 326 326 310
76 347 82 157 114 133 137 271 123 183 197 185 175 161 167 165 157 139 191 220 224 224 223 223 225 228 241 257 270 275 276 281 289 300 307 311 314 315 315 314 313 315 312 314 317 321 319 318 306
32 256 167 139 144 258 53 330 159 179 210 172 163 170 172 164 159 164 201 198 193 182 194 205 215 228 247 260 268 272 279 290 297 303 306 310 311 312 315 314 313 310 309 308 309 312 313 311 305
360 281 130 103 17 62 81 226 322 155 159 179 174 172 177 174 177 187 194 189 186 184 193 204 218 235 248 258 268 280 288 293 300 308 313 315 317 316 313 310 313 310 309 307 302 303 304 303 299
5 339 336 196 166 127 178 226 130 147 145 189 191 187 182 188 191 195 196 196 199 199 211 226 236 251 265 273 279 283 290 302 310 312 313 313 314 313 314 311 310 309 305 301 300 297 296 293 289
19 287 351 95 85 254 107 252 203 171 202 209 197 189 198 201 199 192 193 191 199 213 231 246 253 257 265 278 294 301 306 307 308 307 308 308 307 306 306 305 304 304 302 301 298 295 292 288 285
354 357 246 210 43 278 177 263 258 244 218 201 201 207 204 200 194 193 198 208 222 235 244 254 259 270 285 292 299 304 306 306 307 307 307 305 303 303 303 302 300 298 297 296 294 293 291 286 282
136 254 290 316 340 308 312 98 70 189 224 202 211 213 206 201 203 211 221 231 238 246 252 255 260 272 284 297 308 313 313 312 311 310 308 305 303 302 300 298 296 294 292 291 289 289 288 284 282
297 305 302 295 116 14 344 270 47 47 40 219 219 210 209 210 217 219 229 240 246 243 245 248 260 273 292 306 312 312 311 311 309 308 306 304 304 304 303 300 298 295 292 290 288 287 286 282 279
Height
1515 1518 1521 1523 1525 1512 1507 1499 1498 1503 1506 1508 1506 1508 1508 1514 1513 1524 1529 1532 1534 1537 1536 1537 1538 1540 1542 1542 1543 1543 1543 1543 1543 1543 1543 1543 1543 1542 1542 1541 1540 1540 1539 1538 1537 1536 1536 1535 1534
1514 1520 1523 1521 1519 1512 1504 1491 1503 1500 1506 1510 1513 1514 1513 1519 1523 1526 1530 1533 1536 1538 1539 1538 1539 1541 1542 1543 1544 1544 1544 1544 1544 1544 1543 1543 1543 1542 1542 1541 1540 1540 1539 1538 1537 1536 1535 1534 1533
1514 1519 1520 1513 1510 1503 1498 1488 1496 1505 1510 1511 1513 1516 1518 1524 1526 1530 1532 1535 1536 1540 1539 1540 1540 1542 1543 1544 1545 1545 1545 1545 1544 1544 1544 1543 1543 1542 1541 1540 1540 1539 1538 1537 1536 1535 1535 1533 1533
1513 1519 1515 1504 1499 1495 1488 1493 1498 1506 1511 1512 1514 1516 1524 1527 1529 1531 1534 1535 1537 1539 1539 1541 1541 1543 1544 1545 1545 1545 1545 1545 1545 1544 1544 1543 1543 1542 1540 1539 1538 1537 1536 1535 1535 1534 1533 1533 1531
1513 1515 1514 1502 1494 1488 1488 1497 1501 1503 1507 1511 1514 1517 1524 1527 1529 1533 1534 1536 1538 1540 1540 1541 1542 1543 1544 1545 1545 1546 1546 1545 1545 1544 1543 1542 1541 1540 1539 1537 1536 1535 1534 1533 1532 1531 1531 1530 1529
1509 1506 1510 1498 1493 1485 1490 1500 1501 1501 1507 1511 1515 1518 1525 1527 1529 1533 1537 1537 1540 1541 1541 1542 1543 1544 1545 1545 1545 1545 1545 1544 1544 1543 1542 1541 1540 1539 1538 1536 1535 1534 1533 1531 1530 1529 1528 1528 1527
1499 1495 1491 1495 1489 1488 1493 1500 1499 1501 1507 1511 1513 1515 1525 1527 1529 1533 1535 1536 1539 1540 1542 1543 1543 1544 1545 1545 1545 1545 1544 1544 1543 1542 1541 1540 1539 1537 1536 1534 1533 1531 1530 1529 1527 1526 1525 1524 1524
1502 1494 1487 1487 1488 1494 1493 1499 1500 1502 1505 1511 1514 1514 1522 1525 1528 1531 1534 1536 1539 1540 1542 1543 1544 1545 1545 1545 1545 1544 1544 1543 1542 1541 1540 1539 1537 1536 1534 1532 1530 1528 1527 1525 1524 1523 1521 1520 1519
1500 1490 1484 1478 1483 1489 1494 1497 1503 1505 1508 1512 1515 1517 1520 1520 1527 1531 1534 1536 1538 1540 1542 1543 1544 1545 1545 1545 1544 1544 1543 1542 1541 1540 1539 1537 1536 1534 1532 1530 1528 1525 1523 1521 1519 1518 1517 1515 1514
1494 1485 1480 1474 1478 1485 1493 1496 1501 1506 1509 1513 1515 1519 1518 1521 1526 1531 1535 1536 1539 1540 1542 1543 1544 1544 1544 1544 1544 1543 1542 1541 1540 1539 1538 1536 1534 1532 1530 1527 1525 1523 1521 1518 1516 1514 1512 1511 1510
1490 1483 1474 1477 1482 1483 1492 1495 1500 1502 1508 1507 1513 1517 1519 1521 1527 1531 1536 1537 1539 1539 1541 1543 1543 1543 1543 1543 1543 1542 1541 1540 1539 1538 1536 1534 1532 1530 1529 1526 1524 1521 1518 1516 1514 1512 1510 1508 1506
1486 1488 1483 1487 1490 1487 1492 1495 1499 1502 1507 1508 1512 1516 1519 1521 1526 1530 1534 1537 1537 1538 1540 1541 1542 1542 1543 1543 1542 1541 1540 1539 1538 1536 1535 1533 1531 1530 1528 1525 1522 1519 1517 1514 1512 1510 1508 1506 1504
1485 1489 1491 1493 1495 1493 1494 1496 1497 1502 1507 1508 1512 1515 1519 1522 1526 1530 1534 1536 1537 1538 1539 1540 1541 1541 1541 1541 1541 1540 1539 1538 1536 1534 1533 1531 1530 1528 1526 1523 1521 1518 1515 1512 1510 1508 1506 1503 1501
1481 1489 1493 1496 1496 1495 1495 1497 1499 1506 1507 1509 1512 1516 1519 1523 1526 1529 1532 1534 1536 1538 1538 1539 1539 1540 1540 1540 1539 1539 1538 1536 1535 1533 1532 1530 1528 1527 1524 1522 1519 1516 1513 1511 1508 1506 1503 1501 1500
1486 1490 1492 1494 1495 1496 1496 1501 1499 1504 1506 1509 1513 1516 1519 1523 1526 1528 1530 1533 1536 1537 1537 1537 1538 1539 1538 1538 1538 1537 1536 1535 1533 1533 1531 1529 1527 1526 1523 1520 1517 1514 1511 1509 1506 1504 1501 1499 1498
1484 1485 1489 1496 1496 1497 1497 1499 1502 1504 1506 1509 1513 1517 1519 1521 1525 1527 1529 1531 1533 1535 1535 1536 1536 1537 1537 1537 1536 1536 1535 1534 1533 1532 1530 1528 1527 1524 1521 1519 1516 1513 1510 1507 1505 1502 1499 1497 1496
1480 1483 1482 1496 1496 1493 1495 1490 1502 1504 1506 1507 1513 1516 1518 1520 1522 1525 1527 1529 1532 1532 1533 1533 1534 1535 1535 1535 1535 1534 1533 1532 1532 1531 1529 1528 1526 1523 1521 1518 1515 1512 1509 1506 1503 1500 1497 1496 1495
1481 1476 1481 1489 1495 1493 1492 1493 1501 1504 1506 1505 1510 1514 1516 1518 1520 1523 1525 1526 1528 1529 1530 1531 1531 1532 1532 1532 1532 1532 1531 1530 1530 1529 1528 1527 1524 1522 1519 1517 1514 1511 1508 1505 1502 1499 1496 1494 1491
1472 1472 1479 1489 1497 1492 1491 1494 1500 1504 1507 1505 1507 1511 1515 1518 1520 1520 1521 1523 1524 1526 1527 1529 1528 1529 1529 1530 1530 1529 1529 1528 1528 1527 1526 1525 1522 1520 1518 1515 1512 1510 1507 1505 1502 1498 1495 1492 1490
1477 1475 1485 1497 1498 1496 1496 1495 1497 1503 1504 1505 1507 1509 1513 1516 1518 1518 1517 1519 1520 1522 1523 1524 1525 1525 1527 1528 1528 1528 1527 1527 1526 1525 1524 1522 1520 1518 1516 1513 1511 1508 1506 1503 1501 1497 1494 1491 1490
1480 1475 1486 1487 1497 1498 1495 1495 1500 1503 1505 1506 1508 1510 1512 1515 1516 1516 1515 1516 1516 1517 1519 1520 1522 1523 1524 1525 1525 1526 1525 1524 1524 1523 1521 1520 1517 1515 1513 1511 1508 1506 1504 1502 1499 1496 1494 1491 1490
1486 1496 1491 1491 1491 1494 1497 1500 1492 1497 1501 1504 1506 1508 1511 1513 1514 1514 1514 1514 1514 1514 1516 1517 1519 1520 1521 1522 1523 1523 1522 1522 1522 1521 1520 1517 1515 1513 1511 1508 1506 1504 1502 1500 1498 1495 1493 1490 1489
1502 1501 1495 1489 1489 1496 1496 1502 1493 1498 1499 1501 1503 1507 1510 1512 1513 1513 1513 1513 1513 1513 1514 1515 1516 1518 1520 1521 1521 1521 1520 1520 1519 1518 1516 1514 1512 1510 1508 1506 1504 1502 1500 1497 1496 1493 1492 1489 1488
1504 1499 1493 1489 1489 1507 1509 1508 1493 1498 1491 1496 1502 1506 1509 1510 1512 1512 1512 1512 1513 1513 1513 1515 1516 1517 1518 1518 1518 1518 1518 1518 1517 1515 1513 1511 1509 1507 1504 1502 1501 1499 1497 1495 1493 1491 1489 1487 1486
1499 1497 1504 1512 1515 1500 1515 1511 1492 1494 1496 1496 1500 1504 1508 1509 1511 1512 1512 1513 1513 1514 1514 1514 1515 1515 1516 1516 1516 1516 1515 1514 1513 1512 1510 1508 1506 1504 1502 1500 1498 1496 1494 1492 1490 1488 1487 1485 1484
1508 1508 1505 1504 1503 1501 1516 1506 1493 1496 1500 1503 1504 1505 1507 1509 1510 1511 1512 1512 1512 1513 1513 1514 1514 1515 1515 1514 1514 1514 1513 1512 1510 1509 1507 1506 1503 1501 1499 1498 1495 1493 1491 1489 1487 1485 1484 1482 1481
1510 1508 1516 1518 1519 1505 1497 1495 1492 1499 1501 1502 1503 1504 1506 1507 1508 1509 1510 1512 1512 1512 1512 1512 1513 1513 1513 1513 1513 1512 1511 1510 1508 1507 1504 1502 1501 1498 1495 1493 1491 1489 1487 1485 1483 1481 1480 1479 1477
1518 1519 1511 1507 1511 1508 1493 1496 1503 1508 1497 1499 1500 1502 1504 1506 1508 1510 1510 1511 1511 1511 1512 1512 1512 1513 1513 1512 1511 1510 1509 1507 1505 1503 1500 1498 1496 1493 1491 1488 1486 1484 1483 1481 1479 1477 1475 1474 1473
1515 1513 1513 1509 1508 1502 1497 1492 1490 1496 1494 1496 1499 1502 1504 1507 1508 1509 1510 1510 1510 1511 1511 1511 1512 1512 1511 1510 1508 1507 1506 1504 1501 1498 1496 1493 1490 1488 1485 1483 1481 1479 1477 1476 1474 1472 1470 1468 1468
1523 1516 1511 1508 1510 1510 1513 1506 1492 1494 1495 1496 1498 1501 1503 1506 1507 1508 1508 1508 1508 1509 1509 1509 1509 1509 1508 1507 1505 1504 1501 1499 1496 1493 1490 1488 1484 1483 1480 1478 1475 1474 1472 1470 1468 1466 1465 1463 1461